Time,TemperatureF,DewpointF,PressureIn,WindDirection,WindDirectionDegrees,WindSpeedMPH,WindSpeedGustMPH,Humidity,HourlyPrecipIn,Conditions,Clouds,dailyrainin,SolarRadiationWatts/m^2,SoftwareType,DateUTC
2013-10-24 00:03:00,39.9,35.5,30.06,West,280,0.0,0.0,84,0.00,,---,0.00,0.00,VWS V14.00,2013-10-24 04:03:00,
2013-10-24 00:08:00,39.9,35.2,30.06,West,280,0.0,4.0,83,0.00,,---,0.00,0.00,VWS V14.00,2013-10-24 04:08:00,
2013-10-24 00:13:00,39.9,35.2,30.06,West,281,0.0,3.0,83,0.00,,---,0.00,0.00,VWS V14.00,2013-10-24 04:13:00,
2013-10-24 00:18:00,40.0,35.3,30.06,West,270,2.0,5.0,83,0.00,,---,0.00,0.00,VWS V14.00,2013-10-24 04:18:00,
2013-10-24 00:23:00,40.0,35.3,30.06,West,273,2.0,4.0,83,0.00,,---,0.00,0.00,VWS V14.00,2013-10-24 04:23:00,
2013-10-24 00:28:00,39.9,35.5,30.06,NW,323,5.0,5.0,84,0.00,,---,0.00,0.00,VWS V14.00,2013-10-24 04:28:00,
2013-10-24 00:33:00,39.9,35.5,30.06,WNW,300,7.0,12.0,84,0.00,,---,0.00,0.00,VWS V14.00,2013-10-24 04:33:00,
2013-10-24 00:38:00,40.1,35.4,30.06,NNW,336,2.0,9.0,83,0.00,,---,0.00,0.00,VWS V14.00,2013-10-24 04:38:00,
2013-10-24 00:43:00,40.2,35.5,30.06,NW,313,0.0,8.0,83,0.00,,---,0.00,0.00,VWS V14.00,2013-10-24 04:43:00,
2013-10-24 00:48:00,40.3,35.6,30.06,NW,321,1.0,9.0,83,0.00,,---,0.00,0.00,VWS V14.00,2013-10-24 04:48:00,
2013-10-24 00:53:00,40.4,35.7,30.06,NW,323,2.0,8.0,83,0.00,,---,0.00,0.00,VWS V14.00,2013-10-24 04:53:00,
2013-10-24 00:58:00,40.4,35.7,30.06,NW,323,0.0,6.0,83,0.00,,---,0.00,0.00,VWS V14.00,2013-10-24 04:58:00,
2013-10-24 01:03:00,40.4,35.7,30.06,West,281,0.0,5.0,83,0.00,,---,0.00,0.00,VWS V14.00,2013-10-24 05:03:00,
2013-10-24 01:08:00,40.3,35.9,30.06,NW,317,2.0,6.0,84,0.00,,---,0.00,0.00,VWS V14.00,2013-10-24 05:08:00,
2013-10-24 01:13:00,40.3,35.9,30.06,NW,315,2.0,4.0,84,0.00,,---,0.00,0.00,VWS V14.00,2013-10-24 05:13:00,
2013-10-24 01:18:00,40.3,35.9,30.06,NW,315,0.0,4.0,84,0.00,,---,0.00,0.00,VWS V14.00,2013-10-24 05:18:00,
2013-10-24 01:23:00,40.3,35.9,30.06,NW,315,0.0,4.0,84,0.00,,---,0.00,0.00,VWS V14.00,2013-10-24 05:23:00,
2013-10-24 01:28:00,40.3,36.2,30.06,NW,316,6.0,6.0,85,0.00,,---,0.00,0.00,VWS V14.00,2013-10-24 05:28:00,
2013-10-24 01:33:00,40.3,36.2,30.07,NW,322,2.0,7.0,85,0.00,,---,0.00,0.00,VWS V14.00,2013-10-24 05:33:00,
2013-10-24 01:38:00,40.3,36.2,30.07,NW,324,5.0,10.0,85,0.00,,---,0.00,0.00,VWS V14.00,2013-10-24 05:38:00,
2013-10-24 01:43:00,40.3,36.2,30.07,North,10,0.0,8.0,85,0.00,,---,0.00,0.00,VWS V14.00,2013-10-24 05:43:00,
2013-10-24 01:48:00,40.3,36.2,30.07,NNW,344,4.0,10.0,85,0.00,,---,0.00,0.00,VWS V14.00,2013-10-24 05:48:00,
2013-10-24 01:53:00,40.2,36.1,30.07,NW,316,5.0,8.0,85,0.00,,---,0.00,0.00,VWS V14.00,2013-10-24 05:53:00,
2013-10-24 01:58:00,40.2,36.1,30.07,NNW,329,0.0,7.0,85,0.00,,---,0.00,0.00,VWS V14.00,2013-10-24 05:58:00,
2013-10-24 02:03:00,40.1,36.0,30.07,NW,307,1.0,5.0,85,0.00,,---,0.00,0.00,VWS V14.00,2013-10-24 06:03:00,
2013-10-24 02:08:00,40.0,35.9,30.07,NW,323,4.0,6.0,85,0.00,,---,0.00,0.00,VWS V14.00,2013-10-24 06:08:00,
2013-10-24 02:13:00,40.0,35.9,30.07,NW,325,3.0,6.0,85,0.00,,---,0.00,0.00,VWS V14.00,2013-10-24 06:13:00,
2013-10-24 02:18:00,39.9,35.8,30.07,NNW,334,1.0,6.0,85,0.00,,---,0.00,0.00,VWS V14.00,2013-10-24 06:18:00,
2013-10-24 02:23:00,39.8,36.0,30.07,WNW,284,1.0,5.0,86,0.00,,---,0.00,0.00,VWS V14.00,2013-10-24 06:23:00,
2013-10-24 02:28:00,39.7,35.9,30.07,WNW,284,0.0,3.0,86,0.00,,---,0.00,0.00,VWS V14.00,2013-10-24 06:28:00,
2013-10-24 02:33:00,39.7,35.9,30.08,WNW,291,1.0,4.0,86,0.00,,---,0.00,0.00,VWS V14.00,2013-10-24 06:33:00,
2013-10-24 02:38:00,39.6,36.1,30.08,WNW,291,2.0,3.0,87,0.00,,---,0.00,0.00,VWS V14.00,2013-10-24 06:38:00,
2013-10-24 02:43:00,39.6,36.1,30.08,WNW,285,0.0,5.0,87,0.00,,---,0.00,0.00,VWS V14.00,2013-10-24 06:43:00,
2013-10-24 02:48:00,39.5,36.0,30.08,NW,304,2.0,3.0,87,0.00,,---,0.00,0.00,VWS V14.00,2013-10-24 06:48:00,
2013-10-24 02:53:00,39.4,35.9,30.08,NW,304,2.0,4.0,87,0.00,,---,0.00,0.00,VWS V14.00,2013-10-24 06:53:00,
2013-10-24 02:58:00,39.4,35.9,30.08,WNW,300,2.0,4.0,87,0.00,,---,0.00,0.00,VWS V14.00,2013-10-24 06:58:00,
2013-10-24 03:03:00,39.4,35.9,30.08,NW,319,1.0,5.0,87,0.00,,---,0.00,0.00,VWS V14.00,2013-10-24 07:03:00,
2013-10-24 03:08:00,39.4,35.9,30.08,WNW,298,2.0,5.0,87,0.00,,---,0.00,0.00,VWS V14.00,2013-10-24 07:08:00,
2013-10-24 03:13:00,39.3,35.8,30.08,West,281,0.0,5.0,87,0.00,,---,0.00,0.00,VWS V14.00,2013-10-24 07:13:00,
2013-10-24 03:18:00,39.3,36.0,30.08,West,281,0.0,1.0,88,0.00,,---,0.00,0.00,VWS V14.00,2013-10-24 07:18:00,
2013-10-24 03:23:00,39.3,36.0,30.08,West,265,3.0,4.0,88,0.00,,---,0.00,0.00,VWS V14.00,2013-10-24 07:23:00,
2013-10-24 03:28:00,39.3,36.0,30.08,WNW,292,0.0,5.0,88,0.00,,---,0.00,0.00,VWS V14.00,2013-10-24 07:28:00,
2013-10-24 03:33:00,39.3,36.0,30.08,WNW,299,4.0,5.0,88,0.00,,---,0.00,0.00,VWS V14.00,2013-10-24 07:33:00,
2013-10-24 03:38:00,39.2,35.7,30.08,West,277,2.0,5.0,87,0.00,,---,0.00,0.00,VWS V14.00,2013-10-24 07:38:00,
2013-10-24 03:43:00,39.2,35.7,30.08,WNW,283,1.0,5.0,87,0.00,,---,0.00,0.00,VWS V14.00,2013-10-24 07:43:00,
2013-10-24 03:48:00,39.2,35.7,30.08,West,280,2.0,5.0,87,0.00,,---,0.00,0.00,VWS V14.00,2013-10-24 07:48:00,
2013-10-24 03:53:00,39.2,35.7,30.08,WNW,300,2.0,5.0,87,0.00,,---,0.00,0.00,VWS V14.00,2013-10-24 07:53:00,
2013-10-24 03:58:00,39.2,35.7,30.08,WNW,301,0.0,4.0,87,0.00,,---,0.00,0.00,VWS V14.00,2013-10-24 07:58:00,
2013-10-24 04:03:00,39.1,35.6,30.08,West,277,4.0,6.0,87,0.00,,---,0.00,0.00,VWS V14.00,2013-10-24 08:03:00,
2013-10-24 04:08:00,39.2,35.7,30.08,WNW,286,2.0,5.0,87,0.00,,---,0.00,0.00,VWS V14.00,2013-10-24 08:08:00,
2013-10-24 04:13:00,39.1,35.3,30.08,WNW,289,4.0,8.0,86,0.00,,---,0.00,0.00,VWS V14.00,2013-10-24 08:13:00,
2013-10-24 04:18:00,39.1,35.3,30.08,WNW,298,2.0,8.0,86,0.00,,---,0.00,0.00,VWS V14.00,2013-10-24 08:18:00,
2013-10-24 04:23:00,39.1,35.3,30.08,NW,306,4.0,8.0,86,0.00,,---,0.00,0.00,VWS V14.00,2013-10-24 08:23:00,
2013-10-24 04:28:00,39.1,35.3,30.08,WNW,299,2.0,6.0,86,0.00,,---,0.00,0.00,VWS V14.00,2013-10-24 08:28:00,
2013-10-24 04:33:00,39.0,35.2,30.08,West,267,3.0,5.0,86,0.00,,---,0.00,0.00,VWS V14.00,2013-10-24 08:33:00,
2013-10-24 04:38:00,39.0,35.2,30.07,WSW,251,3.0,4.0,86,0.00,,---,0.00,0.00,VWS V14.00,2013-10-24 08:38:00,
2013-10-24 04:43:00,38.9,35.1,30.08,WSW,255,4.0,5.0,86,0.00,,---,0.00,0.00,VWS V14.00,2013-10-24 08:43:00,
2013-10-24 04:48:00,38.8,35.3,30.07,WNW,290,0.0,5.0,87,0.00,,---,0.00,0.00,VWS V14.00,2013-10-24 08:48:00,
2013-10-24 04:53:00,38.7,35.2,30.07,West,273,0.0,5.0,87,0.00,,---,0.00,0.00,VWS V14.00,2013-10-24 08:53:00,
2013-10-24 04:58:00,38.7,35.2,30.07,West,273,1.0,5.0,87,0.00,,---,0.00,0.00,VWS V14.00,2013-10-24 08:58:00,
2013-10-24 05:03:00,38.6,35.1,30.07,West,267,2.0,5.0,87,0.00,,---,0.00,0.00,VWS V14.00,2013-10-24 09:03:00,
2013-10-24 05:08:00,38.5,35.0,30.07,WSW,246,0.0,5.0,87,0.00,,---,0.00,0.00,VWS V14.00,2013-10-24 09:08:00,
2013-10-24 05:13:00,38.5,35.3,30.08,West,261,0.0,0.0,88,0.00,,---,0.00,0.00,VWS V14.00,2013-10-24 09:13:00,
2013-10-24 05:18:00,38.4,34.9,30.08,NW,305,2.0,5.0,87,0.00,,---,0.00,0.00,VWS V14.00,2013-10-24 09:18:00,
2013-10-24 05:23:00,38.4,34.9,30.08,West,281,1.0,2.0,87,0.00,,---,0.00,0.00,VWS V14.00,2013-10-24 09:23:00,
2013-10-24 05:28:00,38.4,34.9,30.08,WNW,300,0.0,0.0,87,0.00,,---,0.00,0.00,VWS V14.00,2013-10-24 09:28:00,
2013-10-24 05:33:00,38.3,34.8,30.09,WNW,282,5.0,5.0,87,0.00,,---,0.00,0.00,VWS V14.00,2013-10-24 09:33:00,
2013-10-24 05:38:00,38.3,34.8,30.09,WNW,289,1.0,2.0,87,0.00,,---,0.00,0.00,VWS V14.00,2013-10-24 09:38:00,
2013-10-24 05:43:00,38.3,35.1,30.09,WNW,289,0.0,0.0,88,0.00,,---,0.00,0.00,VWS V14.00,2013-10-24 09:43:00,
2013-10-24 05:48:00,38.2,35.0,30.09,WSW,250,1.0,1.0,88,0.00,,---,0.00,0.00,VWS V14.00,2013-10-24 09:48:00,
2013-10-24 05:53:00,38.2,35.0,30.09,SW,236,0.0,0.0,88,0.00,,---,0.00,0.00,VWS V14.00,2013-10-24 09:53:00,
2013-10-24 05:58:00,38.2,35.0,30.09,WSW,244,1.0,1.0,88,0.00,,---,0.00,0.00,VWS V14.00,2013-10-24 09:58:00,
2013-10-24 06:03:00,38.2,35.0,30.09,West,275,2.0,4.0,88,0.00,,---,0.00,0.00,VWS V14.00,2013-10-24 10:03:00,
2013-10-24 06:08:00,38.1,34.9,30.09,WNW,303,1.0,3.0,88,0.00,,---,0.00,0.00,VWS V14.00,2013-10-24 10:08:00,
2013-10-24 06:13:00,38.1,34.9,30.09,West,277,0.0,0.0,88,0.00,,---,0.00,0.00,VWS V14.00,2013-10-24 10:13:00,
2013-10-24 06:18:00,38.1,34.6,30.09,WNW,288,4.0,5.0,87,0.00,,---,0.00,0.00,VWS V14.00,2013-10-24 10:18:00,
2013-10-24 06:23:00,38.1,36.0,30.09,NW,306,0.0,1.0,92,0.00,,---,0.00,0.00,VWS V14.00,2013-10-24 10:23:00,
2013-10-24 06:28:00,38.2,34.7,30.09,WSW,239,0.0,0.0,87,0.00,,---,0.00,0.00,VWS V14.00,2013-10-24 10:28:00,
2013-10-24 06:33:00,38.2,34.7,30.09,West,278,0.0,1.0,87,0.00,,---,0.00,0.00,VWS V14.00,2013-10-24 10:33:00,
2013-10-24 06:39:00,38.2,34.7,30.09,WSW,253,1.0,2.0,87,0.00,,---,0.00,0.00,VWS V14.00,2013-10-24 10:39:00,
2013-10-24 06:44:00,38.2,34.4,30.10,WNW,292,0.0,3.0,86,0.00,,---,0.00,0.00,VWS V14.00,2013-10-24 10:44:00,
2013-10-24 06:49:00,38.2,34.4,30.10,West,273,1.0,2.0,86,0.00,,---,0.00,0.00,VWS V14.00,2013-10-24 10:49:00,
2013-10-24 06:54:00,38.3,34.5,30.10,West,273,4.0,7.0,86,0.00,,---,0.00,0.00,VWS V14.00,2013-10-24 10:54:00,
2013-10-24 06:59:00,38.3,34.5,30.10,West,267,1.0,2.0,86,0.00,,---,0.00,0.00,VWS V14.00,2013-10-24 10:59:00,
2013-10-24 07:04:00,38.3,34.5,30.10,WNW,297,4.0,7.0,86,0.00,,---,0.00,0.00,VWS V14.00,2013-10-24 11:04:00,
2013-10-24 07:09:00,38.3,34.5,30.10,West,274,2.0,4.0,86,0.00,,---,0.00,0.00,VWS V14.00,2013-10-24 11:09:00,
2013-10-24 07:14:00,38.3,34.5,30.10,WNW,293,2.0,4.0,86,0.00,,---,0.00,0.00,VWS V14.00,2013-10-24 11:14:00,
2013-10-24 07:19:00,38.3,34.5,30.11,West,275,5.0,6.0,86,0.00,,---,0.00,0.00,VWS V14.00,2013-10-24 11:19:00,
2013-10-24 07:24:00,38.3,34.5,30.11,WNW,301,7.0,8.0,86,0.00,,---,0.00,0.00,VWS V14.00,2013-10-24 11:24:00,
2013-10-24 07:29:00,38.4,34.6,30.11,WNW,288,1.0,4.0,86,0.00,,---,0.00,0.00,VWS V14.00,2013-10-24 11:29:00,
2013-10-24 07:34:00,38.4,34.6,30.11,WNW,302,2.0,3.0,86,0.00,,---,0.00,0.00,VWS V14.00,2013-10-24 11:34:00,
2013-10-24 07:39:00,38.4,34.6,30.11,WSW,252,0.0,2.0,86,0.00,,---,0.00,0.00,VWS V14.00,2013-10-24 11:39:00,
2013-10-24 07:44:00,38.3,34.5,30.11,NNW,327,6.0,6.0,86,0.00,,---,0.00,0.00,VWS V14.00,2013-10-24 11:44:00,
2013-10-24 07:49:00,38.3,34.5,30.11,WNW,293,7.0,7.0,86,0.00,,---,0.00,0.00,VWS V14.00,2013-10-24 11:49:00,
2013-10-24 07:54:00,38.3,34.5,30.11,WNW,298,6.0,6.0,86,0.00,,---,0.00,0.00,VWS V14.00,2013-10-24 11:54:00,
2013-10-24 07:59:00,38.3,34.5,30.11,WNW,292,2.0,3.0,86,0.00,,---,0.00,0.00,VWS V14.00,2013-10-24 11:59:00,
2013-10-24 08:04:00,38.2,34.1,30.11,NW,307,0.0,2.0,85,0.00,,---,0.00,5.00,VWS V14.00,2013-10-24 12:04:00,
2013-10-24 08:09:00,38.2,34.4,30.11,NW,313,1.0,3.0,86,0.00,,---,0.00,7.00,VWS V14.00,2013-10-24 12:09:00,
2013-10-24 08:14:00,38.2,34.4,30.11,West,279,4.0,4.0,86,0.00,,---,0.00,11.00,VWS V14.00,2013-10-24 12:14:00,
2013-10-24 08:19:00,38.2,34.4,30.11,WNW,296,2.0,3.0,86,0.00,,---,0.00,12.00,VWS V14.00,2013-10-24 12:19:00,
2013-10-24 08:24:00,38.1,34.3,30.11,West,276,4.0,6.0,86,0.00,,---,0.00,21.00,VWS V14.00,2013-10-24 12:24:00,
2013-10-24 08:29:00,38.0,34.2,30.11,WNW,291,4.0,4.0,86,0.00,,---,0.00,37.00,VWS V14.00,2013-10-24 12:29:00,
2013-10-24 08:34:00,38.0,34.2,30.12,WSW,258,0.0,3.0,86,0.00,,---,0.00,39.00,VWS V14.00,2013-10-24 12:34:00,
2013-10-24 08:39:00,38.1,34.3,30.12,West,260,4.0,4.0,86,0.00,,---,0.00,51.00,VWS V14.00,2013-10-24 12:39:00,
2013-10-24 08:44:00,38.2,34.4,30.12,West,264,2.0,5.0,86,0.00,,---,0.00,60.00,VWS V14.00,2013-10-24 12:44:00,
2013-10-24 08:49:00,38.3,34.5,30.12,WSW,243,3.0,5.0,86,0.00,,---,0.00,60.00,VWS V14.00,2013-10-24 12:49:00,
2013-10-24 08:54:00,38.4,34.6,30.12,WSW,246,0.0,4.0,86,0.00,,---,0.00,65.00,VWS V14.00,2013-10-24 12:54:00,
2013-10-24 08:59:00,38.6,34.8,30.12,WSW,248,0.0,1.0,86,0.00,,---,0.00,72.00,VWS V14.00,2013-10-24 12:59:00,
2013-10-24 09:04:00,38.7,34.9,30.12,WSW,258,0.0,2.0,86,0.00,,---,0.00,74.00,VWS V14.00,2013-10-24 13:04:00,
2013-10-24 09:09:00,38.8,35.0,30.13,WNW,302,5.0,7.0,86,0.00,,---,0.00,76.00,VWS V14.00,2013-10-24 13:09:00,
2013-10-24 09:14:00,38.9,35.1,30.13,WSW,243,7.0,7.0,86,0.00,,---,0.00,79.00,VWS V14.00,2013-10-24 13:14:00,
2013-10-24 09:19:00,39.0,35.2,30.13,West,271,2.0,8.0,86,0.00,,---,0.00,79.00,VWS V14.00,2013-10-24 13:19:00,
2013-10-24 09:24:00,39.1,35.0,30.13,WSW,257,9.0,9.0,85,0.00,,---,0.00,83.00,VWS V14.00,2013-10-24 13:24:00,
2013-10-24 09:29:00,39.1,35.0,30.13,WNW,292,3.0,4.0,85,0.00,,---,0.00,109.00,VWS V14.00,2013-10-24 13:29:00,
2013-10-24 09:34:00,39.3,35.2,30.13,West,281,5.0,7.0,85,0.00,,---,0.00,118.00,VWS V14.00,2013-10-24 13:34:00,
2013-10-24 09:39:00,39.6,35.5,30.14,WNW,294,5.0,5.0,85,0.00,,---,0.00,120.00,VWS V14.00,2013-10-24 13:39:00,
2013-10-24 09:44:00,39.8,35.4,30.14,WSW,242,5.0,7.0,84,0.00,,---,0.00,128.00,VWS V14.00,2013-10-24 13:44:00,
2013-10-24 09:49:00,39.9,35.5,30.14,West,281,8.0,8.0,84,0.00,,---,0.00,135.00,VWS V14.00,2013-10-24 13:49:00,
2013-10-24 09:54:00,40.0,35.3,30.14,NW,308,6.0,7.0,83,0.00,,---,0.00,146.00,VWS V14.00,2013-10-24 13:54:00,
2013-10-24 09:59:00,40.2,35.5,30.14,NNW,330,7.0,8.0,83,0.00,,---,0.00,158.00,VWS V14.00,2013-10-24 13:59:00,
2013-10-24 10:04:00,40.4,35.3,30.14,WNW,287,6.0,8.0,82,0.00,,---,0.00,169.00,VWS V14.00,2013-10-24 14:04:00,
2013-10-24 10:09:00,40.5,35.1,30.14,NW,319,5.0,9.0,81,0.00,,---,0.00,181.00,VWS V14.00,2013-10-24 14:09:00,
2013-10-24 10:14:00,40.7,35.3,30.14,NW,315,5.0,7.0,81,0.00,,---,0.00,199.00,VWS V14.00,2013-10-24 14:14:00,
2013-10-24 10:19:00,40.9,35.2,30.14,West,271,3.0,4.0,80,0.00,,---,0.00,197.00,VWS V14.00,2013-10-24 14:19:00,
2013-10-24 10:24:00,41.2,35.5,30.14,NW,308,5.0,5.0,80,0.00,,---,0.00,206.00,VWS V14.00,2013-10-24 14:24:00,
2013-10-24 10:29:00,41.3,35.6,30.14,NW,310,5.0,5.0,80,0.00,,---,0.00,213.00,VWS V14.00,2013-10-24 14:29:00,
2013-10-24 10:34:00,41.4,35.4,30.14,NW,316,6.0,10.0,79,0.00,,---,0.00,214.00,VWS V14.00,2013-10-24 14:34:00,
2013-10-24 10:39:00,41.4,35.4,30.15,NNW,332,1.0,8.0,79,0.00,,---,0.00,241.00,VWS V14.00,2013-10-24 14:39:00,
2013-10-24 10:44:00,41.5,35.2,30.14,NNW,344,8.0,9.0,78,0.00,,---,0.00,250.00,VWS V14.00,2013-10-24 14:44:00,
2013-10-24 10:49:00,41.6,35.3,30.14,NNW,329,5.0,6.0,78,0.00,,---,0.00,248.00,VWS V14.00,2013-10-24 14:49:00,
2013-10-24 10:54:00,41.8,35.5,30.14,NNW,333,1.0,5.0,78,0.00,,---,0.00,237.00,VWS V14.00,2013-10-24 14:54:00,
2013-10-24 10:59:00,42.0,35.3,30.15,WNW,292,4.0,8.0,77,0.00,,---,0.00,223.00,VWS V14.00,2013-10-24 14:59:00,
2013-10-24 11:04:00,42.1,35.1,30.15,NW,304,4.0,6.0,76,0.00,,---,0.00,223.00,VWS V14.00,2013-10-24 15:04:00,
2013-10-24 11:09:00,42.1,34.8,30.15,WNW,290,7.0,10.0,75,0.00,,---,0.00,223.00,VWS V14.00,2013-10-24 15:09:00,
2013-10-24 11:14:00,42.1,34.8,30.15,NW,313,5.0,6.0,75,0.00,,---,0.00,248.00,VWS V14.00,2013-10-24 15:14:00,
2013-10-24 11:19:00,42.3,34.6,30.15,WSW,254,8.0,8.0,74,0.00,,---,0.00,253.00,VWS V14.00,2013-10-24 15:19:00,
2013-10-24 11:24:00,42.3,34.3,30.15,WNW,293,4.0,7.0,73,0.00,,---,0.00,253.00,VWS V14.00,2013-10-24 15:24:00,
2013-10-24 11:29:00,42.4,34.0,30.15,WNW,303,6.0,11.0,72,0.00,,---,0.00,258.00,VWS V14.00,2013-10-24 15:29:00,
2013-10-24 11:34:00,42.4,34.4,30.15,NW,319,7.0,10.0,73,0.00,,---,0.00,234.00,VWS V14.00,2013-10-24 15:34:00,
2013-10-24 11:39:00,42.5,34.8,30.15,WNW,297,8.0,8.0,74,0.00,,---,0.00,239.00,VWS V14.00,2013-10-24 15:39:00,
2013-10-24 11:44:00,42.5,34.5,30.16,WNW,284,7.0,9.0,73,0.00,,---,0.00,186.00,VWS V14.00,2013-10-24 15:44:00,
2013-10-24 11:49:00,42.6,34.2,30.16,WNW,297,6.0,7.0,72,0.00,,---,0.00,162.00,VWS V14.00,2013-10-24 15:49:00,
2013-10-24 11:54:00,42.6,33.9,30.16,NW,320,8.0,8.0,71,0.00,,---,0.00,218.00,VWS V14.00,2013-10-24 15:54:00,
2013-10-24 11:59:00,42.8,33.3,30.16,WNW,300,6.0,10.0,69,0.00,,---,0.00,260.00,VWS V14.00,2013-10-24 15:59:00,
2013-10-24 12:04:00,42.9,34.2,30.15,NNW,327,13.0,13.0,71,0.00,,---,0.00,255.00,VWS V14.00,2013-10-24 16:04:00,
2013-10-24 12:09:00,43.0,33.9,30.16,West,267,7.0,10.0,70,0.00,,---,0.00,264.00,VWS V14.00,2013-10-24 16:09:00,
2013-10-24 12:14:00,43.0,33.9,30.15,WNW,298,10.0,12.0,70,0.00,,---,0.00,288.00,VWS V14.00,2013-10-24 16:14:00,
2013-10-24 12:19:00,43.0,33.5,30.16,WNW,301,7.0,10.0,69,0.00,,---,0.00,288.00,VWS V14.00,2013-10-24 16:19:00,
2013-10-24 12:24:00,43.2,34.1,30.15,NW,313,5.0,6.0,70,0.00,,---,0.00,315.00,VWS V14.00,2013-10-24 16:24:00,
2013-10-24 12:29:00,43.6,34.5,30.16,WSW,258,4.0,5.0,70,0.00,,---,0.00,318.00,VWS V14.00,2013-10-24 16:29:00,
2013-10-24 12:34:00,43.8,33.9,30.16,West,265,6.0,10.0,68,0.00,,---,0.00,301.00,VWS V14.00,2013-10-24 16:34:00,
2013-10-24 12:39:00,43.8,33.9,30.15,SW,225,10.0,10.0,68,0.00,,---,0.00,311.00,VWS V14.00,2013-10-24 16:39:00,
2013-10-24 12:44:00,44.0,33.8,30.15,NW,317,9.0,9.0,67,0.00,,---,0.00,308.00,VWS V14.00,2013-10-24 16:44:00,
2013-10-24 12:49:00,43.9,33.3,30.15,NW,304,4.0,11.0,66,0.00,,---,0.00,295.00,VWS V14.00,2013-10-24 16:49:00,
2013-10-24 12:54:00,43.9,34.4,30.15,WSW,241,2.0,8.0,69,0.00,,---,0.00,292.00,VWS V14.00,2013-10-24 16:54:00,
2013-10-24 12:59:00,44.0,33.8,30.15,WNW,297,5.0,9.0,67,0.00,,---,0.00,318.00,VWS V14.00,2013-10-24 16:59:00,
2013-10-24 13:04:00,44.2,33.6,30.15,WNW,295,9.0,12.0,66,0.00,,---,0.00,301.00,VWS V14.00,2013-10-24 17:04:00,
2013-10-24 13:09:00,44.2,33.6,30.15,NW,319,8.0,9.0,66,0.00,,---,0.00,260.00,VWS V14.00,2013-10-24 17:09:00,
2013-10-24 13:14:00,44.1,33.5,30.15,West,266,6.0,7.0,66,0.00,,---,0.00,255.00,VWS V14.00,2013-10-24 17:14:00,
2013-10-24 13:19:00,44.2,33.6,30.15,NW,321,7.0,12.0,66,0.00,,---,0.00,223.00,VWS V14.00,2013-10-24 17:19:00,
2013-10-24 13:24:00,44.3,33.7,30.15,WNW,288,7.0,7.0,66,0.00,,---,0.00,209.00,VWS V14.00,2013-10-24 17:24:00,
2013-10-24 13:29:00,44.1,32.7,30.15,NW,318,10.0,11.0,64,0.00,,---,0.00,172.00,VWS V14.00,2013-10-24 17:29:00,
2013-10-24 13:34:00,43.9,33.3,30.14,WSW,256,5.0,11.0,66,0.00,,---,0.00,165.00,VWS V14.00,2013-10-24 17:34:00,
2013-10-24 13:39:00,43.8,33.6,30.15,WNW,292,5.0,10.0,67,0.00,,---,0.00,255.00,VWS V14.00,2013-10-24 17:39:00,
2013-10-24 13:44:00,43.8,33.6,30.15,West,262,6.0,11.0,67,0.00,,---,0.00,174.00,VWS V14.00,2013-10-24 17:44:00,
2013-10-24 13:49:00,43.8,33.9,30.15,NW,306,5.0,8.0,68,0.00,,---,0.00,135.00,VWS V14.00,2013-10-24 17:49:00,
2013-10-24 13:54:00,43.7,33.5,30.14,NNW,333,10.0,12.0,67,0.00,,---,0.00,239.00,VWS V14.00,2013-10-24 17:54:00,
2013-10-24 13:59:00,43.5,33.3,30.15,WNW,303,12.0,15.0,67,0.00,,---,0.00,185.00,VWS V14.00,2013-10-24 17:59:00,
2013-10-24 14:04:00,43.4,33.6,30.14,NW,326,14.0,14.0,68,0.00,,---,0.00,287.00,VWS V14.00,2013-10-24 18:04:00,
2013-10-24 14:09:00,43.5,33.3,30.14,NW,311,6.0,9.0,67,0.00,,---,0.00,285.00,VWS V14.00,2013-10-24 18:09:00,
2013-10-24 14:14:00,43.9,34.0,30.14,WSW,247,6.0,9.0,68,0.00,,---,0.00,329.00,VWS V14.00,2013-10-24 18:14:00,
2013-10-24 14:19:00,44.1,33.9,30.14,WNW,292,7.0,8.0,67,0.00,,---,0.00,320.00,VWS V14.00,2013-10-24 18:19:00,
2013-10-24 14:24:00,44.0,33.4,30.14,NW,313,12.0,12.0,66,0.00,,---,0.00,299.00,VWS V14.00,2013-10-24 18:24:00,
2013-10-24 14:29:00,44.1,33.9,30.14,NW,317,9.0,11.0,67,0.00,,---,0.00,288.00,VWS V14.00,2013-10-24 18:29:00,
2013-10-24 14:34:00,43.9,33.7,30.14,NW,326,5.0,10.0,67,0.00,,---,0.00,279.00,VWS V14.00,2013-10-24 18:34:00,
2013-10-24 14:39:00,43.9,34.0,30.14,NW,315,8.0,10.0,68,0.00,,---,0.00,369.00,VWS V14.00,2013-10-24 18:39:00,
2013-10-24 14:44:00,44.2,34.0,30.14,NW,321,5.0,6.0,67,0.00,,---,0.00,387.00,VWS V14.00,2013-10-24 18:44:00,
2013-10-24 14:49:00,44.5,34.2,30.14,NW,317,8.0,9.0,67,0.00,,---,0.00,339.00,VWS V14.00,2013-10-24 18:49:00,
2013-10-24 14:54:00,44.5,33.9,30.14,WNW,301,7.0,9.0,66,0.00,,---,0.00,216.00,VWS V14.00,2013-10-24 18:54:00,
2013-10-24 14:59:00,44.3,34.0,30.14,SSW,197,6.0,8.0,67,0.00,,---,0.00,172.00,VWS V14.00,2013-10-24 18:59:00,
2013-10-24 15:04:00,44.4,34.1,30.14,WSW,247,3.0,9.0,67,0.00,,---,0.00,183.00,VWS V14.00,2013-10-24 19:04:00,
2013-10-24 15:09:00,44.3,34.0,30.14,NW,313,5.0,9.0,67,0.00,,---,0.00,149.00,VWS V14.00,2013-10-24 19:09:00,
2013-10-24 15:14:00,44.2,33.6,30.14,NW,306,6.0,7.0,66,0.00,,---,0.00,100.00,VWS V14.00,2013-10-24 19:14:00,
2013-10-24 15:19:00,44.1,33.5,30.14,NW,306,6.0,12.0,66,0.00,,---,0.00,90.00,VWS V14.00,2013-10-24 19:19:00,
2013-10-24 15:24:00,44.0,33.4,30.15,West,267,12.0,13.0,66,0.00,,---,0.00,77.00,VWS V14.00,2013-10-24 19:24:00,
2013-10-24 15:29:00,43.6,34.1,30.15,NW,311,9.0,19.0,69,0.00,,---,0.00,62.00,VWS V14.00,2013-10-24 19:29:00,
2013-10-24 15:34:00,42.8,34.4,30.15,NW,323,8.0,10.0,72,0.00,,---,0.00,62.00,VWS V14.00,2013-10-24 19:34:00,
2013-10-24 15:39:00,42.2,34.9,30.15,NW,319,6.0,9.0,75,0.00,,---,0.00,84.00,VWS V14.00,2013-10-24 19:39:00,
2013-10-24 15:44:00,42.0,35.0,30.15,NW,304,5.0,8.0,76,0.00,,---,0.00,123.00,VWS V14.00,2013-10-24 19:44:00,
2013-10-24 15:49:00,41.9,35.5,30.16,NW,314,7.0,9.0,78,0.00,,---,0.00,144.00,VWS V14.00,2013-10-24 19:49:00,
2013-10-24 15:54:00,41.9,35.5,30.16,WNW,301,7.0,10.0,78,0.00,,---,0.00,185.00,VWS V14.00,2013-10-24 19:54:00,
2013-10-24 15:59:00,41.8,35.5,30.16,NW,306,5.0,8.0,78,0.00,,---,0.00,195.00,VWS V14.00,2013-10-24 19:59:00,
2013-10-24 16:05:00,41.9,35.2,30.16,NW,326,6.0,8.0,77,0.00,,---,0.00,209.00,VWS V14.00,2013-10-24 20:05:00,
2013-10-24 16:10:00,42.2,35.8,30.16,WSW,246,6.0,7.0,78,0.00,,---,0.00,192.00,VWS V14.00,2013-10-24 20:10:00,
2013-10-24 16:15:00,42.5,35.5,30.16,WNW,286,10.0,10.0,76,0.00,,---,0.00,179.00,VWS V14.00,2013-10-24 20:15:00,
2013-10-24 16:20:00,42.5,35.2,30.16,NNW,328,8.0,8.0,75,0.00,,---,0.00,172.00,VWS V14.00,2013-10-24 20:20:00,
2013-10-24 16:25:00,42.5,35.2,30.17,NW,325,4.0,7.0,75,0.00,,---,0.00,186.00,VWS V14.00,2013-10-24 20:25:00,
2013-10-24 16:30:00,42.8,35.8,30.17,NW,318,5.0,5.0,76,0.00,,---,0.00,272.00,VWS V14.00,2013-10-24 20:30:00,
2013-10-24 16:35:00,43.1,36.1,30.17,NW,317,6.0,8.0,76,0.00,,---,0.00,167.00,VWS V14.00,2013-10-24 20:35:00,
2013-10-24 16:40:00,43.0,35.6,30.16,WNW,297,10.0,12.0,75,0.00,,---,0.00,142.00,VWS V14.00,2013-10-24 20:40:00,
2013-10-24 16:45:00,42.9,35.9,30.16,WNW,282,4.0,7.0,76,0.00,,---,0.00,134.00,VWS V14.00,2013-10-24 20:45:00,
2013-10-24 16:50:00,43.0,36.0,30.17,West,271,4.0,6.0,76,0.00,,---,0.00,104.00,VWS V14.00,2013-10-24 20:50:00,
2013-10-24 16:55:00,43.1,35.7,30.17,WNW,300,7.0,9.0,75,0.00,,---,0.00,91.00,VWS V14.00,2013-10-24 20:55:00,
2013-10-24 17:00:00,42.8,35.4,30.17,NW,314,2.0,10.0,75,0.00,,---,0.00,88.00,VWS V14.00,2013-10-24 21:00:00,
2013-10-24 17:05:00,42.7,35.7,30.17,WNW,297,4.0,7.0,76,0.00,,---,0.00,77.00,VWS V14.00,2013-10-24 21:05:00,
2013-10-24 17:10:00,42.5,35.5,30.17,West,266,5.0,10.0,76,0.00,,---,0.00,74.00,VWS V14.00,2013-10-24 21:10:00,
2013-10-24 17:15:00,42.4,35.7,30.17,WSW,253,5.0,9.0,77,0.00,,---,0.00,69.00,VWS V14.00,2013-10-24 21:15:00,
2013-10-24 17:20:00,42.4,35.7,30.17,West,278,6.0,8.0,77,0.00,,---,0.00,62.00,VWS V14.00,2013-10-24 21:20:00,
2013-10-24 17:25:00,42.3,35.9,30.17,NW,308,6.0,8.0,78,0.00,,---,0.00,47.00,VWS V14.00,2013-10-24 21:25:00,
2013-10-24 17:30:00,42.3,35.6,30.17,WNW,288,4.0,8.0,77,0.00,,---,0.00,32.00,VWS V14.00,2013-10-24 21:30:00,
2013-10-24 17:35:00,42.2,35.8,30.17,WNW,302,6.0,8.0,78,0.00,,---,0.00,12.00,VWS V14.00,2013-10-24 21:35:00,
2013-10-24 17:40:00,41.7,36.0,30.18,NNW,333,9.0,19.0,80,0.00,,---,0.00,12.00,VWS V14.00,2013-10-24 21:40:00,
2013-10-24 17:45:00,40.9,36.5,30.19,NW,323,7.0,7.0,84,0.00,,---,0.00,19.00,VWS V14.00,2013-10-24 21:45:00,
2013-10-24 17:50:00,40.2,36.3,30.19,WNW,297,8.0,8.0,86,0.00,,---,0.00,23.00,VWS V14.00,2013-10-24 21:50:00,
2013-10-24 17:55:00,39.4,35.9,30.19,WNW,291,10.0,15.0,87,0.00,,---,0.00,30.00,VWS V14.00,2013-10-24 21:55:00,
2013-10-24 18:00:00,38.8,35.8,30.19,WNW,300,7.0,12.0,89,0.00,,---,0.00,28.00,VWS V14.00,2013-10-24 22:00:00,
2013-10-24 18:05:00,38.5,35.5,30.19,WNW,298,5.0,10.0,89,0.00,,---,0.00,16.00,VWS V14.00,2013-10-24 22:05:00,
2013-10-24 18:10:00,38.2,35.2,30.20,NNW,327,13.0,14.0,89,0.00,,---,0.00,9.00,VWS V14.00,2013-10-24 22:10:00,
2013-10-24 18:15:00,38.0,35.3,30.20,NW,304,11.0,11.0,90,0.00,,---,0.00,9.00,VWS V14.00,2013-10-24 22:15:00,
2013-10-24 18:20:00,37.9,35.2,30.20,NNW,327,7.0,11.0,90,0.00,,---,0.00,11.00,VWS V14.00,2013-10-24 22:20:00,
2013-10-24 18:25:00,37.7,35.0,30.20,WNW,291,11.0,12.0,90,0.00,,---,0.00,5.00,VWS V14.00,2013-10-24 22:25:00,
2013-10-24 18:30:00,37.5,34.8,30.20,NW,322,8.0,8.0,90,0.01,,---,0.01,5.00,VWS V14.00,2013-10-24 22:30:00,
2013-10-24 18:35:00,37.4,35.0,30.20,NW,325,5.0,10.0,91,0.01,,---,0.01,0.00,VWS V14.00,2013-10-24 22:35:00,
2013-10-24 18:40:00,37.5,35.1,30.21,NW,319,2.0,6.0,91,0.01,,---,0.01,0.00,VWS V14.00,2013-10-24 22:40:00,
2013-10-24 18:45:00,37.5,35.1,30.21,WNW,298,7.0,9.0,91,0.01,,---,0.01,0.00,VWS V14.00,2013-10-24 22:45:00,
2013-10-24 18:50:00,37.5,35.1,30.21,NW,320,6.0,7.0,91,0.01,,---,0.01,0.00,VWS V14.00,2013-10-24 22:50:00,
2013-10-24 18:55:00,37.5,35.1,30.22,NNW,327,5.0,13.0,91,0.01,,---,0.01,0.00,VWS V14.00,2013-10-24 22:55:00,
2013-10-24 19:00:00,37.4,34.7,30.22,NNW,341,10.0,14.0,90,0.01,,---,0.01,0.00,VWS V14.00,2013-10-24 23:00:00,
2013-10-24 19:05:00,37.3,34.6,30.22,NW,317,5.0,10.0,90,0.01,,---,0.01,0.00,VWS V14.00,2013-10-24 23:05:00,
2013-10-24 19:10:00,37.4,34.7,30.22,NW,320,7.0,10.0,90,0.01,,---,0.01,0.00,VWS V14.00,2013-10-24 23:10:00,
2013-10-24 19:15:00,37.4,34.7,30.22,NNW,330,2.0,7.0,90,0.01,,---,0.01,0.00,VWS V14.00,2013-10-24 23:15:00,
2013-10-24 19:20:00,37.3,34.6,30.22,NNW,329,8.0,10.0,90,0.01,,---,0.01,0.00,VWS V14.00,2013-10-24 23:20:00,
2013-10-24 19:25:00,37.3,34.6,30.22,NW,325,5.0,7.0,90,0.01,,---,0.01,0.00,VWS V14.00,2013-10-24 23:25:00,
2013-10-24 19:30:00,37.4,34.7,30.23,NW,317,4.0,8.0,90,0.00,,---,0.01,0.00,VWS V14.00,2013-10-24 23:30:00,
2013-10-24 19:35:00,37.4,34.7,30.23,NW,317,3.0,7.0,90,0.00,,---,0.01,0.00,VWS V14.00,2013-10-24 23:35:00,
2013-10-24 19:40:00,37.5,35.1,30.22,NW,325,4.0,6.0,91,0.00,,---,0.01,0.00,VWS V14.00,2013-10-24 23:40:00,
2013-10-24 19:45:00,37.5,35.1,30.23,WNW,300,5.0,7.0,91,0.00,,---,0.01,0.00,VWS V14.00,2013-10-24 23:45:00,
2013-10-24 19:50:00,37.5,35.1,30.23,NW,317,2.0,4.0,91,0.00,,---,0.01,0.00,VWS V14.00,2013-10-24 23:50:00,
2013-10-24 19:55:00,37.5,35.1,30.23,NW,313,5.0,6.0,91,0.00,,---,0.01,0.00,VWS V14.00,2013-10-24 23:55:00,
2013-10-24 20:03:00,37.5,35.1,30.23,NW,317,4.0,7.0,91,0.00,,---,0.01,0.00,VWS V14.00,2013-10-25 00:03:00,
2013-10-24 20:08:00,37.6,35.2,30.24,NW,306,4.0,7.0,91,0.00,,---,0.01,0.00,VWS V14.00,2013-10-25 00:08:00,
2013-10-24 20:15:00,37.6,34.9,30.24,NW,321,4.0,6.0,90,0.00,,---,0.01,0.00,VWS V14.00,2013-10-25 00:15:00,
2013-10-24 20:20:00,37.6,34.9,30.24,NW,304,5.0,9.0,90,0.00,,---,0.01,0.00,VWS V14.00,2013-10-25 00:20:00,
2013-10-24 20:25:00,37.5,34.8,30.24,NW,315,6.0,6.0,90,0.00,,---,0.01,0.00,VWS V14.00,2013-10-25 00:25:00,
2013-10-24 20:30:00,37.6,34.9,30.24,WNW,294,3.0,7.0,90,0.00,,---,0.01,0.00,VWS V14.00,2013-10-25 00:30:00,
2013-10-24 20:35:00,37.6,34.9,30.24,NW,321,5.0,8.0,90,0.00,,---,0.01,0.00,VWS V14.00,2013-10-25 00:35:00,
2013-10-24 20:40:00,37.6,34.9,30.24,NW,304,6.0,7.0,90,0.00,,---,0.01,0.00,VWS V14.00,2013-10-25 00:40:00,
2013-10-24 20:45:00,37.6,34.9,30.25,NW,325,6.0,6.0,90,0.00,,---,0.01,0.00,VWS V14.00,2013-10-25 00:45:00,
2013-10-24 20:50:00,37.6,34.9,30.25,NW,323,8.0,9.0,90,0.00,,---,0.01,0.00,VWS V14.00,2013-10-25 00:50:00,
2013-10-24 20:55:00,37.7,35.3,30.25,WNW,290,5.0,8.0,91,0.00,,---,0.01,0.00,VWS V14.00,2013-10-25 00:55:00,
2013-10-24 21:00:00,37.7,35.3,30.25,WNW,300,5.0,12.0,91,0.00,,---,0.01,0.00,VWS V14.00,2013-10-25 01:00:00,
2013-10-24 21:05:00,37.8,35.1,30.25,NNW,330,6.0,8.0,90,0.00,,---,0.01,0.00,VWS V14.00,2013-10-25 01:05:00,
2013-10-24 21:10:00,37.8,35.4,30.25,WNW,296,4.0,9.0,91,0.00,,---,0.01,0.00,VWS V14.00,2013-10-25 01:10:00,
2013-10-24 21:15:00,37.8,35.4,30.25,NW,311,4.0,6.0,91,0.00,,---,0.01,0.00,VWS V14.00,2013-10-25 01:15:00,
2013-10-24 21:20:00,37.8,35.4,30.25,NW,318,1.0,5.0,91,0.00,,---,0.01,0.00,VWS V14.00,2013-10-25 01:20:00,
2013-10-24 21:25:00,37.7,35.3,30.25,NW,315,5.0,8.0,91,0.00,,---,0.01,0.00,VWS V14.00,2013-10-25 01:25:00,
2013-10-24 21:30:00,37.7,35.3,30.25,NW,322,2.0,9.0,91,0.00,,---,0.01,0.00,VWS V14.00,2013-10-25 01:30:00,
2013-10-24 21:35:00,37.6,35.2,30.25,West,260,5.0,8.0,91,0.00,,---,0.01,0.00,VWS V14.00,2013-10-25 01:35:00,
2013-10-24 21:40:00,37.6,35.2,30.26,NNW,329,1.0,8.0,91,0.00,,---,0.01,0.00,VWS V14.00,2013-10-25 01:40:00,
2013-10-24 21:45:00,37.6,35.2,30.26,NNW,328,8.0,11.0,91,0.00,,---,0.01,0.00,VWS V14.00,2013-10-25 01:45:00,
2013-10-24 21:50:00,37.5,35.1,30.25,NW,321,7.0,7.0,91,0.00,,---,0.01,0.00,VWS V14.00,2013-10-25 01:50:00,
2013-10-24 21:55:00,37.5,35.1,30.26,NW,319,4.0,6.0,91,0.00,,---,0.01,0.00,VWS V14.00,2013-10-25 01:55:00,
2013-10-24 22:00:00,37.4,35.0,30.26,NW,312,4.0,10.0,91,0.00,,---,0.01,0.00,VWS V14.00,2013-10-25 02:00:00,
2013-10-24 22:05:00,37.4,35.0,30.26,NW,323,0.0,7.0,91,0.00,,---,0.01,0.00,VWS V14.00,2013-10-25 02:05:00,
2013-10-24 22:10:00,37.4,35.0,30.26,NW,319,3.0,5.0,91,0.00,,---,0.01,0.00,VWS V14.00,2013-10-25 02:10:00,
2013-10-24 22:15:00,37.4,35.0,30.26,NW,308,2.0,6.0,91,0.00,,---,0.01,0.00,VWS V14.00,2013-10-25 02:15:00,
2013-10-24 22:20:00,37.4,35.0,30.26,NW,309,3.0,5.0,91,0.00,,---,0.01,0.00,VWS V14.00,2013-10-25 02:20:00,
2013-10-24 22:25:00,37.4,35.0,30.26,NW,313,5.0,6.0,91,0.00,,---,0.01,0.00,VWS V14.00,2013-10-25 02:25:00,
2013-10-24 22:30:00,37.4,35.0,30.26,NW,304,3.0,5.0,91,0.00,,---,0.01,0.00,VWS V14.00,2013-10-25 02:30:00,
2013-10-24 22:35:00,37.4,35.0,30.27,NW,319,2.0,5.0,91,0.00,,---,0.01,0.00,VWS V14.00,2013-10-25 02:35:00,
2013-10-24 22:40:00,37.3,34.9,30.27,WNW,288,6.0,6.0,91,0.00,,---,0.01,0.00,VWS V14.00,2013-10-25 02:40:00,
2013-10-24 22:45:00,37.2,34.8,30.27,NW,305,6.0,6.0,91,0.00,,---,0.01,0.00,VWS V14.00,2013-10-25 02:45:00,
2013-10-24 22:50:00,37.3,34.9,30.27,WNW,299,4.0,5.0,91,0.00,,---,0.01,0.00,VWS V14.00,2013-10-25 02:50:00,
2013-10-24 22:56:00,37.2,34.8,30.27,WNW,291,5.0,7.0,91,0.00,,---,0.01,0.00,VWS V14.00,2013-10-25 02:56:00,
2013-10-24 23:01:00,37.2,34.8,30.27,NW,310,2.0,6.0,91,0.00,,---,0.01,0.00,VWS V14.00,2013-10-25 03:01:00,
2013-10-24 23:06:00,37.2,34.8,30.28,WNW,298,6.0,8.0,91,0.00,,---,0.01,0.00,VWS V14.00,2013-10-25 03:06:00,
2013-10-24 23:11:00,37.3,34.9,30.28,NW,316,6.0,6.0,91,0.00,,---,0.01,0.00,VWS V14.00,2013-10-25 03:11:00,
2013-10-24 23:16:00,37.3,34.9,30.28,NW,321,2.0,6.0,91,0.00,,---,0.01,0.00,VWS V14.00,2013-10-25 03:16:00,
2013-10-24 23:21:00,37.2,34.8,30.28,NW,315,7.0,7.0,91,0.00,,---,0.01,0.00,VWS V14.00,2013-10-25 03:21:00,
2013-10-24 23:26:00,37.2,34.8,30.28,WNW,300,2.0,5.0,91,0.00,,---,0.01,0.00,VWS V14.00,2013-10-25 03:26:00,
2013-10-24 23:31:00,37.2,34.8,30.29,NW,309,5.0,6.0,91,0.00,,---,0.01,0.00,VWS V14.00,2013-10-25 03:31:00,
2013-10-24 23:36:00,37.2,34.8,30.29,WNW,302,3.0,6.0,91,0.00,,---,0.01,0.00,VWS V14.00,2013-10-25 03:36:00,
2013-10-24 23:41:00,37.2,34.8,30.29,WNW,286,2.0,4.0,91,0.00,,---,0.01,0.00,VWS V14.00,2013-10-25 03:41:00,
2013-10-24 23:46:00,37.2,34.8,30.29,WNW,299,4.0,6.0,91,0.00,,---,0.01,0.00,VWS V14.00,2013-10-25 03:46:00,
2013-10-24 23:51:00,37.1,34.7,30.28,WNW,301,3.0,5.0,91,0.00,,---,0.01,0.00,VWS V14.00,2013-10-25 03:51:00,
2013-10-24 23:56:00,37.2,34.8,30.29,NW,311,6.0,6.0,91,0.00,,---,0.00,0.00,VWS V14.00,2013-10-25 03:56:00,